Weather Roundup
Issued by NWS Chicago, IL

Home | Current Version | Previous Version | Text Only | Print | Product List | Glossary Off
Versions: 1 2 3 4 5 6 7 8 9 10 11 12 13 14 15 16 17 18 19 20 21 22 23 24 25 26 27 28 29 30 31 32 33 34 35 36 37 38 39 40 41 42 43 44 45 46 47 48 49 50

000
NZUS59 KLOT 210206
HRRLOT

CHICAGO AREA WEATHER ROUNDUP
NATIONAL WEATHER SERVICE CHICAGO/ROMEOVILLE IL
800 PM CST THU NOV 20 2014

NOTE: "FAIR" INDICATES FEW OR NO CLOUDS BELOW 12,000 FEET WITH NO
SIGNIFICANT WEATHER AND/OR OBSTRUCTIONS TO VISIBILITY.

* THESE STATIONS ARE NOT UNDER NWS QUALITY CONTROL. THEY ALSO MAY NOT
  REPORT WEATHER SUCH AS PRECIPITATION OR FOG.

ILZ005-006-012>014-019>023-210300-
NORTHEAST ILLINOIS

CITY           SKY/WX    TMP DP  RH WIND       PRES   REMARKS
OHARE          CLEAR     20   3  48 NW14G22   30.21R WCI   7
MIDWAY         CLEAR     22   3  44 NW15      30.22R WCI   9
AURORA         CLEAR     13   3  64 NW7       30.23R WCI   3
LANSING*       CLEAR     22   6  49 NW9       30.21R WCI  12
JOLIET*          N/A     19   5  55 NW7       30.24R WCI   9
WAUKEGAN       CLEAR     17   5  59 W6        30.19R WCI   9
DUPAGE AIRPORT CLEAR     17   2  51 W10       30.21R WCI   5
WHEELING       CLEAR     20   4  50 W12       30.23R WCI   8
KANKAKEE*      CLEAR     22   8  56 W9        30.24R WCI  11
MORRIS*        CLEAR     15   7  68 NW10      30.24R WCI   3
LEWIS AIRPORT* CLEAR     18   6  58 NW10      30.23R WCI   6
NORTHERLY IS     N/A     23   6  48 W12         N/A  WCI  12
$$

WIZ051-052-058>065-066-070>072-210300-
SOUTHEAST WISCONSIN

CITY           SKY/WX    TMP DP  RH WIND       PRES   REMARKS
MILWAUKEE      CLEAR     18  -1  43 NW13G22   30.19R WCI   5
KENOSHA*       CLEAR     15   4  61 W8        30.19R WCI   4
RACINE*        CLEAR     18   0  45 NW7       30.21R WCI   9
BURLINGTON     CLEAR     13   0  55 W7        30.20R WCI   3
WAUKESHA       CLEAR     14   1  57 NW14      30.18R WCI  -1
WEST BEND        N/A     14   1  57 NW7       30.18R WCI   4
$$

INZ001>003-010>013-019-020-210300-
NORTHWEST INDIANA

CITY           SKY/WX    TMP DP  RH WIND       PRES   REMARKS
GARY*          CLEAR     23   5  46 W12       30.21R WCI  12
MICHIGAN CITY* NOT AVBL
RENSSELAER*    NOT AVBL
VALPARAISO     CLEAR     20   4  50 W12       30.19R WCI   8
$$

LMZ740>746-210300-
SOUTHERN LAKE MICHIGAN

STATION/POSITION TIME  SKY/WX   TEMP WIND        PRES    VSBY
                                AIR  DIR/SP/G
                 (UTC)          (F)  (DEG/KT/KT) (MB)    (MI)
HARRISON CRIB    0200            22  290/ 21/ 25   N/A
BURNHAM HARBOR   0200            23  280/ 10/ 16   N/A
CALUMET HARBOR   0200            22  270/  7/ 13 1021.6R
BURNS HARBOR     NOT AVBL
MICHIGAN CITY    0200            25  280/ 24/ 29   N/A
$$

ABBREVIATIONS USED IN REMARKS
   TC - TEMPERATURE IN CELSIUS
  WCI - WIND CHILL INDEX
   HX - HEAT INDEX
  VSB - VISIBILITY
$$


USA.gov is the U.S. government's official web portal to all federal, state and local government web resources and services.